This is the latest recevied weather packets stored in our database for station/object KO4T-4. If no packets are shown the sender has not sent any weather packets the latest 10 day(s).
| Time | Temp. | Humidity | Pressure | Rain* | Wind** | Luminosity | Snow |
|---|---|---|---|---|---|---|---|
| 1777836304 | 19.44° C | 39% | 1016.1 hPa | 0 mm | - | - | - |
| 1777836005 | 18.89° C | 37% | 1016.1 hPa | 0 mm | - | - | - |
| 1777835704 | 18.89° C | 36% | 1016.3 hPa | 0 mm | - | - | - |
| 1777835404 | 19.44° C | 36% | 1016.3 hPa | 0 mm | - | - | - |
| 1777835103 | 18.89° C | 36% | 1016.3 hPa | 0 mm | - | - | - |
| 1777834804 | 18.89° C | 32% | 1016.4 hPa | 0 mm | - | - | - |
| 1777834503 | 18.89° C | 33% | 1016.5 hPa | 0 mm | - | - | - |
| 1777834204 | 18.89° C | 37% | 1016.5 hPa | 0 mm | - | - | - |
| 1777833904 | 18.89° C | 38% | 1016.5 hPa | 0 mm | - | - | - |
| 1777833604 | 19.44° C | 33% | 1016.6 hPa | 0 mm | - | - | - |
| 1777833303 | 18.89° C | 36% | 1016.7 hPa | 0 mm | - | - | - |
| 1777833004 | 18.33° C | 33% | 1016.7 hPa | 0 mm | - | - | - |
| 1777832703 | 17.78° C | 35% | 1016.8 hPa | 0 mm | - | - | - |
| 1777832404 | 18.33° C | 34% | 1016.9 hPa | 0 mm | - | - | - |
| 1777832103 | 18.33° C | 33% | 1016.9 hPa | 0 mm | - | - | - |
| 1777831804 | 17.78° C | 33% | 1017 hPa | 0 mm | - | - | - |
| 1777831503 | 17.78° C | 31% | 1017.1 hPa | 0 mm | - | - | - |
| 1777831204 | 17.78° C | 31% | 1017.1 hPa | 0 mm | - | - | - |
| 1777830904 | 18.33° C | 33% | 1017.2 hPa | 0 mm | - | - | - |
| 1777830604 | 18.89° C | 34% | 1017.2 hPa | 0 mm | - | - | - |
| 1777830303 | 18.33° C | 34% | 1017.2 hPa | 0 mm | - | - | - |
| 1777830004 | 18.33° C | 33% | 1017.2 hPa | 0 mm | - | - | - |
| 1777829703 | 17.78° C | 32% | 1017.2 hPa | 0 mm | - | - | - |
| 1777829404 | 17.22° C | 35% | 1017.2 hPa | 0 mm | - | - | - |
| 1777829104 | 16.67° C | 38% | 1017.5 hPa | 0 mm | - | - | - |
* Rain latest hour (hover to see other rain measurements)
** Current wind speed in m/s (hover to see current wind gust speed)